Location: Middlebury
(44.0153°N, 73.1678°W)
Time: 11:19:47
(UTC-04:00)

TESLA ROADSTER/FALCON 9H - Visible Passes

Search period start: 01 October 2022 00:00
Search period end: 11 October 2022 00:00
Orbit: 180 x 6939 km, 29.0° (Epoch: 07 February)

Date Brightness Start Highest point End Pass type
(mag) Time Alt. Az. Time Alt. Az. Time Alt. Az.
07 Oct ? 03:26:06 12° SE 03:26:06 12° SE 03:26:53 10° SE visible
07 Oct ? 04:18:24 20° SSE 04:18:24 20° SSE 04:22:18 10° SE visible
07 Oct ? 05:10:44 18° SSW 05:11:41 18° SSW 05:16:09 10° S visible
08 Oct ? 03:51:24 11° SSE 03:51:24 11° SSE 03:52:29 10° SE visible
08 Oct ? 04:43:45 15° S 04:43:57 15° S 04:48:13 10° SSE visible
08 Oct ? 05:36:26 10° SW 05:38:47 11° SSW 05:41:08 10° S visible
